Regional Weather Roundup
Issued by NWS Little Rock, AR

Home | Current Version | Previous Version | Text Only | Print | Product List | Glossary Off
Versions: 1 2 3 4 5 6 7 8 9 10 11 12 13 14 15 16 17 18 19 20 21 22 23 24 25 26 27

000
ASUS44 KLZK 262105
RWRLZK

WEATHER ROUNDUP FOR ARKANSAS
NATIONAL WEATHER SERVICE LITTLE ROCK AR
400 PM CDT FRI AUG 26 2016

NOTE: "FAIR" INDICATES FEW OR NO CLOUDS BELOW 12,000 FEET WITH NO
SIGNIFICANT WEATHER AND/OR OBSTRUCTIONS TO VISIBILITY.

ARZ001-003-010-029-262200-
NORTHWEST ARKANSAS

CITY           SKY/WX    TMP DP  RH WIND       PRES   REMARKS
FAYETTEVILLE   CLOUDY    73  68  84 CALM      30.06F
FORT SMITH     CLOUDY    84  69  60 NE5       30.02F HX  88
HARRISON       CLOUDY    83  69  62 W5        30.08F HX  86
BENTONVILLE    CLOUDY    75  68  78 CALM      30.07S
ROGERS         CLOUDY    74  71  91 S5        30.07F
SILOAM SPGS    PTSUNNY   73  64  73 SE7       30.07F
HIGHFILL       CLOUDY    75  70  84 VRB3      30.06F
SPRINGDALE     MOSUNNY   72  70  94 S6        30.08
$$

ARZ004-005-016-262200-
NORTH CENTRAL ARKANSAS

CITY           SKY/WX    TMP DP  RH WIND       PRES   REMARKS
BATESVILLE     CLOUDY    88  75  66 CALM      30.02F HX  97
FLIPPIN        PTSUNNY   88  70  55 NE3       30.02F HX  92
MTN HOME       MOSUNNY   84  72  67 CALM      30.04F HX  89
$$

ARZ040-041-262200-
WEST CENTRAL ARKANSAS

CITY           SKY/WX    TMP DP  RH WIND       PRES   REMARKS
MENA           CLOUDY    82  77  83 SE3       30.03F HX  91
MOUNT IDA      PTSUNNY   85  71  63 VRB5      30.02F HX  90
$$

ARZ009-017-025-026-028-262200-
NORTHEAST ARKANSAS

CITY           SKY/WX    TMP DP  RH WIND       PRES   REMARKS
CORNING          N/A     88  75  66 NE6       30.02F HX  97
JONESBORO      CLOUDY    83  74  74 NE6       30.02S HX  89
NEWPORT        CLOUDY    88  74  63 NE7       30.03R HX  96
WALNUT RIDGE   MOSUNNY   88  75  66 NE7       30.00F HX  97
BLYTHEVILLE    LGT RAIN  73  70  90 E7        30.04S
NW BLYTHEVILLE TSTM      77  73  88 VRB3      30.03F
$$

ARZ022-023-033-042-044-262200-
CENTRAL ARKANSAS

CITY           SKY/WX    TMP DP  RH WIND       PRES   REMARKS
LITTLE ROCK    MOSUNNY   93  72  50 S8        29.99F HX 101
N LITTLE ROCK    N/A     91  77  62 E5        29.97F HX 104
JACKSONVILLE   SUNNY     92  76  59 NE5       29.99F HX 103
SEARCY         PTSUNNY   91  78  65 E3        30.02F HX 106
HOT SPRINGS    MOSUNNY   90  71  53 W6        30.01F HX  96
RUSSELLVILLE   MOSUNNY   90  70  51 VRB7      30.00F HX  95
$$

ARZ036-262200-
EAST ARKANSAS

CITY           SKY/WX    TMP DP  RH WIND       PRES   REMARKS
WEST MEMPHIS   CLOUDY    79  75  87 S6        30.03R
$$

ARZ050-053-066-070-073-262200-
SOUTHWEST ARKANSAS

CITY           SKY/WX    TMP DP  RH WIND       PRES   REMARKS
ARKADELPHIA    FAIR      89  75  63 N7        29.99F HX  99
TEXARKANA      SUNNY     87  70  56 NE5       30.00F HX  92
EL DORADO      MOSUNNY   90  72  55 VRB3      29.99F HX  97
DE QUEEN       CLOUDY    84  75  74 CALM      29.98F HX  92
$$

ARZ056-057-069-262200-
SOUTHEAST ARKANSAS

CITY           SKY/WX    TMP DP  RH WIND       PRES   REMARKS
PINE BLUFF     SUNNY     91  73  55 MISG      29.99F HX  99
STUTTGART      SUNNY     93  73  52 W5        30.00F HX 102
MONTICELLO     SUNNY     94  71  47 CALM      29.98F HX 101

$$






USA.gov is the U.S. government's official web portal to all federal, state and local government web resources and services.